Theta_e
347 347 347 347 347 347 346 344 341 341 343 344 345 346 346 345 345 345 347 348 348 348 347 347 347 347 347 347 347 347 348 343 339 340 341 342 342 343 345 344 344 345 344 344 344 344 343 343 343 342 343 344 343 341 340 340 342 343 343 342 343 343 344 345 345 344 344 344 345 345 345 345 345 345 344 344 343 343 343 343 342 342 341 341 341
347 346 346 346 346 345 342 341 341 342 344 345 347 348 348 348 347 348 349 349 349 348 348 347 347 347 347 347 347 347 348 345 340 338 339 339 339 341 344 343 342 343 343 343 343 344 344 343 343 341 342 343 341 340 340 342 343 343 343 343 344 345 345 345 345 345 345 345 346 345 345 345 345 345 344 344 343 343 342 341 340 340 340 340 340
346 346 346 346 345 343 341 342 342 343 345 346 347 349 349 349 349 350 350 350 349 348 349 349 347 348 347 347 347 347 348 347 341 337 337 338 337 339 341 342 342 341 342 343 343 344 344 344 344 343 342 343 343 342 343 344 344 344 344 344 345 345 345 345 345 345 345 346 346 346 345 345 345 344 344 344 343 343 341 339 338 337 337 338 339
346 346 345 345 344 343 342 343 345 346 346 346 348 349 349 349 349 350 350 350 350 349 349 349 349 349 348 347 347 347 347 348 345 340 337 338 338 338 338 340 342 342 342 342 343 344 344 343 344 344 344 344 344 344 344 345 345 345 345 344 344 344 344 344 345 345 345 346 346 346 345 345 345 344 344 344 343 343 342 339 337 336 334 335 337
346 345 344 344 343 343 344 344 346 347 347 347 348 349 349 349 349 350 350 350 350 350 349 349 349 349 349 348 347 347 347 348 348 344 341 339 339 339 338 338 339 340 341 340 342 343 343 343 343 344 344 344 345 344 345 345 345 345 346 345 345 345 345 345 345 346 346 346 346 345 345 344 344 344 344 343 343 343 342 339 336 333 329 328 330
348 346 345 344 343 343 344 344 346 347 348 348 348 349 349 349 349 350 350 350 350 350 349 348 348 348 349 349 348 348 347 347 348 347 346 343 341 340 340 340 339 338 338 337 338 339 341 342 344 344 344 344 344 345 345 345 345 346 346 345 346 346 347 346 347 346 346 346 346 345 344 344 344 344 344 343 343 342 341 340 335 329 323 320 321
350 349 347 346 345 344 344 345 346 347 348 349 349 349 349 349 349 349 349 349 350 350 348 348 348 348 349 349 348 348 348 348 348 348 348 347 346 344 342 341 341 340 339 338 337 337 338 340 342 344 344 344 344 344 344 346 346 347 347 347 347 347 348 347 347 346 346 346 345 345 344 343 343 343 344 343 343 342 341 339 333 326 319 317 316
351 350 348 347 347 346 345 345 346 346 347 349 349 349 349 349 348 348 348 349 350 349 348 347 348 348 349 349 348 348 348 347 347 347 347 348 348 347 346 345 344 343 342 341 340 339 339 339 340 341 342 342 343 343 343 344 344 345 346 347 347 348 348 347 346 346 346 345 344 343 343 342 342 342 342 343 342 342 341 338 333 325 318 316 316
350 349 349 347 346 346 347 347 347 346 346 348 349 349 349 349 348 348 348 349 349 348 348 347 348 349 349 348 348 347 347 347 347 347 347 348 348 348 348 347 346 346 345 344 343 342 341 341 341 341 341 341 341 341 341 341 341 342 343 344 345 346 347 346 346 346 345 345 344 342 342 341 341 341 341 342 342 342 341 339 335 326 318 316 316
349 348 347 347 346 346 347 348 347 347 346 347 349 349 349 349 349 349 349 348 348 348 348 348 348 348 348 348 347 347 347 347 346 347 347 347 348 348 348 348 348 348 348 347 347 346 345 344 344 344 344 343 342 341 340 340 341 342 342 343 343 344 345 345 345 345 345 345 344 343 343 341 340 339 338 338 339 339 338 335 331 323 317 316 316
348 347 347 347 347 346 347 347 347 347 347 347 348 349 349 350 350 349 348 348 348 349 349 348 348 348 347 347 347 347 347 347 347 347 347 347 347 348 348 349 349 349 349 349 349 348 348 347 347 347 347 346 345 344 342 342 342 342 343 343 343 342 343 345 345 345 346 346 346 345 342 339 335 333 331 329 329 330 328 327 324 319 316 316 316
347 348 348 347 347 347 347 347 347 347 347 347 348 348 349 350 350 349 348 348 348 349 348 348 347 347 347 347 347 347 347 347 347 347 347 347 347 348 348 349 349 349 350 350 350 350 349 349 349 348 347 345 345 344 343 343 343 343 343 344 344 343 343 344 345 345 345 345 344 342 339 334 329 326 324 323 322 322 321 320 319 317 317 317 317
348 348 348 348 348 347 347 347 347 347 347 347 347 348 349 349 349 349 349 348 348 347 347 347 347 347 347 346 346 346 346 347 347 347 347 347 347 347 348 348 349 349 349 349 350 349 348 348 347 347 346 343 343 343 342 342 342 342 343 343 344 343 342 343 343 343 342 341 339 336 334 331 327 324 321 321 320 320 319 319 318 317 317 317 317
348 348 348 348 347 348 348 348 348 348 348 348 348 348 348 349 349 349 349 348 347 347 347 346 347 347 345 344 345 345 344 344 345 345 345 346 346 347 347 347 348 348 349 349 349 348 346 346 346 346 345 345 344 343 343 342 341 340 341 342 342 342 342 342 342 341 340 338 335 332 330 328 327 324 322 321 320 320 319 319 319 318 318 318 317
348 348 348 348 348 349 349 349 349 349 349 348 348 348 348 348 348 349 348 347 347 346 345 345 346 345 344 346 346 347 348 345 342 343 342 343 344 344 345 345 346 348 348 348 348 347 347 346 346 345 345 345 345 345 345 343 342 341 340 339 339 339 340 340 340 339 338 336 334 331 330 329 328 327 326 325 323 322 321 321 320 320 320 319 319
348 348 348 348 348 349 350 350 350 351 351 349 348 348 348 348 348 348 348 347 346 344 344 344 345 345 346 348 344 347 355 349 343 343 342 342 342 342 344 344 344 346 347 348 347 347 347 347 346 345 345 345 345 345 345 345 344 343 341 340 338 338 338 338 338 339 338 337 336 335 334 334 334 333 333 332 331 330 329 327 326 325 324 323 322
349 349 349 349 349 349 350 350 351 352 352 350 349 348 348 348 348 348 347 347 345 343 342 342 344 344 346 347 345 350 356 348 344 346 342 341 343 342 343 343 344 345 346 347 347 347 347 346 346 345 345 345 344 344 344 345 345 344 344 343 342 340 340 340 340 340 340 340 340 341 341 341 341 342 342 341 341 340 338 337 336 335 333 332 330
348 350 350 350 350 350 350 351 352 353 353 352 350 348 348 348 347 347 346 347 345 343 341 341 342 342 344 344 344 348 350 346 348 350 345 342 342 343 343 342 343 344 344 345 345 346 346 346 346 345 345 344 344 344 344 344 344 344 344 344 344 343 343 343 343 343 343 343 344 344 344 345 345 345 346 346 346 346 345 345 344 343 342 341 340
347 350 351 351 350 351 352 352 353 353 353 352 351 350 349 348 347 346 346 347 346 344 341 341 342 342 343 343 342 345 346 346 350 350 351 350 344 341 342 342 343 343 343 343 344 344 344 344 345 344 344 344 343 344 344 343 343 344 344 344 344 344 344 345 345 345 345 345 345 345 346 346 346 346 346 347 347 347 347 347 347 347 346 346 345
347 350 351 351 351 351 353 353 353 354 353 352 351 351 349 348 347 347 346 346 347 345 343 342 342 342 343 342 344 346 346 346 347 346 351 357 353 345 343 343 344 344 342 342 342 342 343 343 343 343 342 342 343 343 343 343 343 343 343 343 344 344 345 345 345 346 346 346 346 346 346 346 346 347 347 347 347 347 348 348 348 348 348 348 348
347 349 351 352 352 352 353 354 354 354 354 353 353 353 351 349 348 347 346 346 346 346 344 343 342 343 343 342 344 346 346 346 346 346 349 356 358 351 347 346 346 344 343 343 342 341 342 342 342 342 342 342 342 342 342 343 343 343 343 343 343 344 344 345 345 345 345 346 346 346 347 347 347 348 348 349 349 349 350 349 350 350 350 350 350
350 349 350 352 353 353 354 354 354 354 354 354 354 354 353 352 350 348 346 346 347 346 345 344 342 343 343 343 344 345 347 346 345 347 347 349 352 350 347 347 348 345 343 343 342 342 342 342 342 341 341 341 341 342 342 342 343 342 343 343 343 344 344 344 344 345 346 347 347 348 349 350 350 351 352 352 353 353 353 353 352 353 353 353 352
352 352 351 352 353 354 355 355 355 355 355 355 355 355 354 354 353 351 348 346 347 346 345 344 342 342 343 343 344 345 345 345 345 347 347 346 350 351 347 346 346 344 343 343 343 342 341 341 342 342 342 342 342 343 342 342 342 342 342 342 343 343 344 345 347 349 351 351 352 352 352 353 354 355 355 355 355 356 356 356 356 356 356 356 355
353 354 354 353 353 353 354 355 355 355 355 354 354 354 355 355 354 353 350 347 347 347 345 344 342 342 342 342 344 344 344 345 345 347 348 347 348 349 345 345 346 344 342 342 343 343 341 342 343 343 344 343 343 342 341 341 341 341 342 342 342 344 346 350 353 353 354 353 353 354 354 356 357 357 357 357 357 357 358 358 357 357 355 354 352
353 354 354 354 354 353 354 355 355 355 355 355 353 353 354 355 355 355 352 348 347 347 345 344 344 343 342 342 342 344 344 344 345 347 349 348 347 346 344 344 345 344 342 342 343 343 343 344 345 344 344 344 342 342 342 342 343 343 344 344 345 348 352 354 354 354 354 355 355 356 357 357 358 358 358 358 358 358 358 357 355 352 350 348 347
351 352 353 354 354 354 354 355 355 355 355 355 354 353 354 354 355 355 353 350 347 347 346 345 345 344 343 344 344 344 344 343 345 348 350 350 349 347 344 343 343 341 341 341 341 343 345 345 346 344 343 344 344 344 344 343 345 346 347 348 349 351 353 353 354 355 356 356 357 357 357 357 358 358 358 359 358 357 355 352 349 347 345 344 344
350 350 351 352 353 354 355 355 355 355 355 355 355 354 354 354 354 354 353 352 350 348 347 345 345 345 345 345 345 344 343 344 346 350 352 350 348 347 345 346 350 345 340 340 337 340 347 346 345 344 343 346 347 346 346 345 347 349 349 350 351 352 354 355 355 356 356 357 356 356 357 357 359 359 359 358 355 352 349 346 344 343 343 342 341
348 349 350 350 351 353 355 355 355 356 355 355 354 354 355 354 354 354 353 352 351 349 348 346 345 344 345 345 345 344 344 346 349 351 352 349 346 346 344 345 352 352 351 352 344 338 343 345 344 344 345 348 348 346 347 348 349 351 352 353 354 354 355 355 356 356 356 356 356 357 358 359 359 358 356 353 348 345 344 343 342 341 341 340 339
346 347 349 350 349 350 353 355 355 356 356 356 355 354 354 355 354 354 354 353 352 351 350 347 345 345 345 345 345 345 344 347 351 351 351 350 346 347 346 344 347 350 356 363 355 341 339 343 343 345 349 350 348 346 348 349 350 352 353 353 354 354 355 355 355 356 356 357 358 359 359 358 355 352 349 346 344 342 341 340 339 338 339 339 338
346 346 347 349 350 349 351 353 354 355 355 356 356 355 354 354 354 354 354 354 353 353 352 348 345 345 346 346 346 346 344 345 349 350 351 352 350 348 348 346 346 347 348 354 355 345 339 344 347 349 353 351 347 347 348 349 350 351 351 352 352 353 354 355 356 357 358 359 360 359 357 353 349 346 345 343 341 339 337 336 336 337 337 337 336
346 345 345 347 349 350 350 351 353 355 356 356 356 356 355 353 354 354 353 354 354 354 354 352 348 346 345 345 346 346 345 344 346 350 351 352 352 350 349 349 350 349 344 346 352 350 345 349 352 353 354 352 349 348 348 349 350 350 349 349 350 353 355 356 356 358 359 360 359 356 351 347 345 344 343 341 338 335 333 332 334 335 335 336 335
344 344 344 345 347 349 349 350 351 353 355 355 356 357 356 354 353 353 353 354 354 353 354 354 352 350 347 345 344 344 345 344 345 348 350 351 352 351 351 351 351 352 349 346 349 350 351 353 354 354 355 353 350 350 350 349 348 348 348 347 348 352 355 356 357 358 359 359 356 350 346 344 344 343 341 339 335 331 331 331 333 334 335 335 334
342 343 343 343 345 346 347 349 350 351 353 355 356 356 357 355 352 353 353 353 353 353 354 355 354 353 352 351 349 345 344 344 346 349 350 350 352 352 353 353 353 353 353 350 349 350 353 355 355 355 355 353 352 351 352 351 349 348 346 345 347 352 356 357 356 356 358 357 351 345 345 345 343 342 340 337 333 330 330 332 333 335 334 332 330
342 342 342 343 344 344 345 347 348 349 351 352 355 356 357 357 353 353 353 353 353 353 353 354 354 355 355 355 354 351 348 346 349 352 351 352 354 355 354 355 355 355 354 353 352 352 353 355 355 355 355 355 354 352 353 354 353 350 347 345 346 350 356 357 355 357 358 353 347 344 346 345 341 340 339 335 331 330 331 333 334 333 330 328 327
343 341 341 342 344 343 343 345 347 348 349 350 352 354 356 357 356 354 353 353 353 353 353 354 354 354 355 356 356 355 353 351 351 352 353 354 356 356 355 355 355 356 355 355 354 353 354 355 355 355 355 355 354 353 354 355 354 352 349 347 347 349 356 357 355 358 358 350 344 344 345 342 340 339 337 332 329 330 333 333 332 328 327 327 328
343 342 341 341 343 343 342 344 346 347 349 349 350 351 352 355 357 356 355 353 353 353 353 353 354 354 355 355 355 355 355 354 353 352 353 354 355 356 356 356 356 356 356 356 356 355 355 355 355 355 354 354 353 353 354 354 354 353 350 349 348 349 354 357 355 358 357 348 343 345 344 341 340 338 335 330 329 331 332 330 327 326 327 328 328
343 342 341 341 342 342 342 343 344 346 347 348 348 349 349 351 353 355 356 355 354 353 353 354 354 354 355 354 353 354 354 355 355 354 353 354 354 355 355 356 356 356 356 356 356 356 356 356 356 355 355 356 355 354 354 355 354 352 350 350 350 350 354 356 356 358 358 350 344 344 343 340 339 337 333 329 328 331 330 327 325 327 328 328 328
342 342 342 341 341 342 341 342 342 343 345 346 347 348 348 349 349 351 354 355 355 354 353 353 353 353 354 354 353 354 354 354 354 354 354 353 354 354 355 356 356 356 356 356 356 357 357 357 357 357 357 356 356 355 355 356 355 353 351 350 351 351 353 355 355 356 359 354 347 344 343 340 339 336 331 328 328 328 327 325 326 326 327 327 327
342 343 343 342 341 341 341 341 341 341 343 344 345 346 347 349 349 349 351 353 355 355 354 353 353 352 352 352 352 352 352 352 351 352 353 354 354 354 354 355 356 357 357 356 357 357 357 357 357 357 357 357 357 356 355 355 355 354 353 352 353 351 352 353 353 354 358 357 351 346 342 340 338 334 330 327 327 327 325 325 325 325 326 326 326
343 343 344 344 343 342 341 341 340 340 342 344 344 345 346 346 348 349 350 351 353 354 355 354 353 353 351 350 349 348 348 348 348 349 351 353 354 354 353 354 355 356 357 357 358 358 357 358 357 357 357 357 357 356 355 355 354 353 353 354 354 353 351 351 350 352 357 358 354 348 342 341 338 333 330 327 326 325 324 324 324 324 325 326 326
343 343 344 344 344 344 343 342 341 341 342 342 342 343 343 344 345 347 349 351 352 353 355 355 354 354 353 351 348 345 343 345 345 347 349 351 353 354 353 353 354 354 356 356 357 357 357 356 357 357 356 357 356 356 356 354 354 353 353 354 354 353 352 351 349 351 356 358 356 350 344 341 338 333 330 327 325 324 324 323 323 324 325 326 326
344 344 344 345 345 344 343 343 342 342 342 342 341 341 342 342 342 344 347 349 352 353 355 355 355 355 354 353 351 347 345 344 344 345 347 349 352 353 354 355 355 354 355 356 356 356 356 356 356 356 356 356 356 356 355 355 354 354 353 354 354 352 352 352 351 352 355 357 357 352 345 342 338 333 330 327 324 323 322 322 323 324 325 326 326
345 345 345 345 345 345 345 344 344 344 344 343 342 342 342 343 343 344 345 348 350 352 354 354 355 355 355 355 354 352 351 348 346 345 345 346 348 350 352 355 356 356 356 356 356 356 356 356 357 356 356 356 356 356 356 355 355 355 354 353 353 352 352 352 352 353 354 355 357 354 347 342 339 335 331 327 324 322 321 321 323 325 325 325 325
347 346 345 346 346 345 346 346 346 346 345 344 344 343 343 343 343 344 345 347 350 352 353 353 354 354 355 355 355 355 354 352 351 350 349 348 348 348 349 352 355 356 356 356 356 356 357 357 357 357 356 356 356 356 356 356 355 355 354 354 354 353 352 352 352 353 353 355 357 355 348 342 339 336 331 327 324 322 320 320 323 325 325 324 324
348 347 346 346 345 346 346 347 346 346 346 345 345 345 344 344 344 344 346 347 349 351 352 353 353 353 354 355 355 355 354 354 354 354 353 352 351 350 350 351 352 353 354 355 356 356 356 357 357 357 356 356 356 355 354 355 356 355 355 355 354 353 352 352 353 353 354 355 357 354 347 342 339 336 332 327 324 322 320 320 323 324 324 323 323
349 348 347 346 346 346 346 346 346 346 346 346 345 345 345 345 344 345 347 348 350 351 351 352 353 353 353 354 354 354 353 353 353 353 353 352 352 353 352 352 352 351 352 353 354 355 355 356 356 356 354 354 355 354 353 354 354 355 355 355 355 354 353 353 354 355 355 356 356 352 345 342 340 336 331 327 324 323 320 319 322 324 322 321 322
350 349 348 347 347 346 346 346 346 346 346 345 346 346 346 346 346 346 348 349 350 351 352 352 353 353 353 354 354 354 353 353 352 352 352 353 353 354 354 353 352 351 351 351 351 352 352 353 354 354 353 353 354 354 353 353 352 353 354 355 356 355 353 353 354 356 356 356 356 351 344 341 340 337 331 326 325 324 321 319 322 323 321 321 321
351 350 349 348 348 347 347 346 346 346 346 346 345 346 346 346 347 347 349 350 350 351 352 352 353 353 353 354 354 354 353 353 352 351 352 354 354 354 354 353 353 353 352 350 349 350 352 352 353 353 353 353 353 354 354 353 352 351 353 354 356 354 353 354 354 355 357 357 356 352 345 342 341 337 330 325 324 325 321 319 322 323 321 320 321
351 351 350 350 349 348 348 347 347 347 347 346 346 346 346 346 347 348 349 350 351 351 352 352 353 353 354 354 354 354 354 353 352 352 353 355 355 355 355 354 354 354 352 351 351 352 352 352 353 353 353 353 353 353 353 353 352 352 352 353 355 354 353 354 354 355 356 356 356 354 346 342 341 337 330 324 324 325 323 319 321 323 321 320 320
353 352 352 351 351 350 349 348 348 348 347 347 347 346 346 346 347 348 349 350 351 351 351 352 352 353 353 354 354 354 354 353 352 353 354 355 355 355 355 354 354 354 353 352 352 352 352 353 353 353 353 353 353 353 353 354 352 352 352 353 353 353 353 354 355 356 355 355 356 353 346 343 342 337 330 324 323 325 323 319 320 323 321 319 320
354 353 353 352 352 351 351 350 350 349 349 349 348 348 347 347 347 348 348 349 350 351 351 352 352 353 353 353 353 354 354 353 352 353 354 355 355 355 355 354 354 354 353 353 353 353 353 353 354 354 354 354 355 355 355 354 353 353 354 354 354 353 352 354 355 355 355 355 357 354 348 344 341 336 329 325 327 328 324 319 320 322 321 319 319
Wind_Speed
6 6 7 6 6 5 4 5 7 8 9 9 8 8 8 7 6 4 2 1 2 3 3 2 1 2 3 3 4 4 4 3 1 0 1 2 2 2 2 2 3 2 1 0 0 1 1 2 2 2 2 2 2 3 3 2 2 3 3 4 5 5 6 7 7 8 8 9 9 9 9 10 10 10 11 11 11 12 12 11 11 11 11 10 10
6 6 6 7 6 6 6 8 9 9 9 8 7 7 6 6 5 3 1 1 1 2 3 2 2 2 3 3 3 3 4 4 2 1 1 1 1 2 2 2 3 3 2 2 1 0 1 2 2 2 2 3 3 3 3 2 3 3 4 5 5 6 7 7 8 9 9 9 9 9 10 10 11 11 11 11 11 12 12 12 11 11 10 8 9
5 6 6 7 7 7 8 10 10 9 8 7 6 6 5 5 4 3 1 1 1 1 2 3 2 2 3 3 3 3 3 4 3 2 1 1 1 2 2 2 2 2 3 2 1 1 1 2 2 3 3 3 4 4 3 3 4 5 5 6 6 7 8 9 9 9 10 10 11 11 11 11 12 11 11 11 12 12 13 13 12 11 9 8 9
5 5 6 7 8 8 9 10 9 8 7 7 7 6 5 5 4 3 2 1 1 1 2 3 2 3 3 2 3 3 3 4 3 2 2 1 1 2 2 2 2 2 2 3 2 2 2 3 3 4 4 4 4 4 4 4 5 6 6 7 7 8 9 9 9 10 11 11 11 12 12 12 12 11 11 11 12 12 13 13 12 11 10 8 8
4 5 6 7 9 9 9 9 8 8 7 7 7 7 6 5 5 4 2 2 1 1 2 3 2 3 4 3 3 3 3 3 3 3 2 2 2 3 3 2 2 2 3 3 3 3 4 4 5 5 5 5 6 5 5 5 6 7 7 7 8 8 9 9 10 10 11 12 12 12 12 12 12 12 11 11 11 12 13 13 12 11 11 9 9
5 5 7 8 9 9 9 9 8 7 7 7 7 7 7 6 6 4 3 3 2 2 2 3 3 4 5 5 4 4 4 4 4 4 3 3 3 3 3 3 3 3 4 4 4 4 4 5 5 6 6 6 6 6 6 6 6 7 8 8 8 8 9 10 10 11 12 12 13 13 13 13 12 12 12 11 11 12 13 13 12 12 11 10 9
6 6 7 8 9 9 10 9 8 8 8 7 7 7 7 7 7 5 5 4 3 2 2 3 4 4 6 6 6 5 6 5 5 5 4 4 4 4 4 4 4 4 5 5 5 5 5 6 6 7 7 7 7 7 7 7 7 8 8 8 9 9 10 11 11 12 13 13 14 14 13 13 12 12 12 11 12 13 13 13 12 11 11 10 10
7 7 8 9 9 9 9 9 8 8 9 8 8 8 7 7 7 6 6 5 4 3 3 3 4 5 6 7 6 7 7 7 6 6 5 5 5 5 5 5 5 5 5 6 6 6 6 7 7 7 8 8 8 8 8 8 8 9 9 9 9 10 11 12 12 13 14 14 13 13 13 13 13 13 12 12 12 12 13 12 11 11 11 11 11
8 8 8 9 10 10 9 8 8 9 10 10 9 9 8 7 7 6 6 6 5 4 4 4 4 5 6 7 7 7 8 8 7 7 7 6 6 6 5 5 5 6 6 6 6 7 7 7 8 8 9 9 9 9 9 9 9 10 10 10 10 11 11 12 13 13 14 14 13 13 13 13 13 12 11 11 11 11 12 11 11 11 11 11 11
8 8 8 8 9 9 9 9 9 9 10 10 10 9 8 8 7 6 7 7 6 5 5 5 5 5 6 7 8 8 8 9 9 9 8 8 7 6 6 6 6 7 7 7 7 7 8 8 8 9 9 9 9 10 10 10 10 10 11 11 11 11 12 12 13 13 13 14 14 14 13 13 13 12 12 12 11 12 12 12 12 12 12 12 12
9 9 8 9 9 9 10 9 9 10 10 10 10 10 9 8 7 7 7 7 6 6 5 6 5 5 6 6 7 8 8 9 9 9 9 9 8 8 7 7 7 7 7 7 8 8 9 8 9 9 9 9 9 9 10 10 10 10 11 11 12 12 12 12 12 12 13 13 14 14 14 14 14 14 13 13 13 13 14 14 13 13 13 13 12
9 9 9 9 9 9 10 9 10 11 11 10 10 10 9 8 7 6 6 6 7 6 5 5 6 5 5 5 6 7 8 8 8 9 9 9 9 9 8 8 8 8 8 8 8 9 9 9 9 8 8 8 8 8 9 9 9 10 10 10 11 12 12 12 12 13 13 13 13 13 13 14 14 14 14 14 14 14 14 15 15 15 14 14 14
10 10 10 10 10 10 10 10 10 11 10 10 9 9 9 8 7 7 6 6 6 6 5 5 5 5 4 5 6 7 8 8 8 8 9 9 10 10 9 9 9 8 8 8 8 9 8 8 8 8 8 8 7 8 8 9 9 9 9 10 11 11 12 12 13 14 14 14 14 13 14 14 14 14 15 15 15 15 15 15 16 16 16 16 15
11 11 11 11 11 10 10 10 10 10 10 9 9 9 9 9 8 7 6 6 5 5 5 4 3 3 3 5 6 6 8 8 8 9 9 9 9 10 10 9 9 8 8 9 8 8 8 8 8 8 8 8 9 9 9 9 9 9 10 10 10 11 12 12 13 14 14 14 15 14 14 15 15 15 15 16 16 16 16 16 17 17 17 17 17
12 11 11 11 11 10 10 10 10 9 9 10 10 10 10 9 8 7 6 5 5 4 4 5 4 1 2 3 2 4 5 5 7 9 9 8 9 9 9 9 9 9 9 9 8 8 8 9 9 9 9 10 10 10 10 10 10 10 10 11 11 11 11 12 12 13 13 14 14 14 15 15 15 16 16 16 17 17 18 18 18 18 18 19 19
12 12 11 11 11 11 10 10 10 9 10 10 10 10 10 9 9 8 6 5 4 3 4 6 7 4 1 1 1 2 2 3 7 8 7 7 8 8 9 10 10 10 10 9 9 9 9 10 10 10 10 10 10 11 11 11 11 11 11 11 11 11 11 11 11 12 12 13 14 14 15 15 16 16 17 17 18 18 18 19 19 19 20 20 20
12 12 11 11 11 11 10 10 10 10 10 10 11 10 10 10 9 8 6 4 3 3 4 7 8 7 3 1 1 2 1 3 6 6 5 6 7 8 9 10 10 10 10 10 10 10 11 11 11 11 11 11 11 11 11 11 11 11 11 10 10 10 11 11 11 12 12 13 14 14 15 16 17 17 18 18 19 19 20 20 20 21 21 21 21
13 12 12 12 11 10 10 10 10 10 11 11 11 11 11 11 10 9 7 4 3 4 5 6 7 7 7 6 4 3 3 2 2 2 6 6 6 8 9 9 9 9 10 10 11 11 12 12 12 12 12 12 12 12 12 12 12 12 11 10 10 10 11 11 12 13 14 14 15 16 17 18 18 19 20 20 21 21 22 22 22 22 23 23 23
14 13 12 12 11 11 10 10 10 10 10 11 11 11 12 12 11 9 7 5 4 5 6 7 7 7 7 9 8 6 4 3 1 1 4 4 6 9 9 8 9 10 10 10 11 12 12 13 13 12 12 12 13 13 13 13 13 12 12 11 11 12 12 13 14 15 16 17 18 19 19 20 21 21 22 23 23 24 24 24 24 25 25 25 25
15 14 13 13 12 12 11 11 10 10 10 11 11 11 12 12 12 10 9 7 5 6 7 8 8 7 7 10 8 4 3 2 1 1 0 1 5 8 8 10 11 10 9 9 10 11 12 12 12 13 12 12 12 12 13 13 13 13 13 13 13 14 14 15 16 17 18 19 20 21 21 22 22 23 24 24 25 25 25 25 25 25 25 25 25
17 16 15 14 13 12 12 12 11 10 10 11 10 11 12 13 13 12 11 8 7 7 8 9 10 8 8 9 7 3 2 2 1 1 1 0 2 3 7 11 12 11 10 9 10 10 11 12 12 12 13 13 13 13 13 13 13 13 13 13 14 15 16 17 18 19 20 21 21 22 22 23 23 23 23 23 23 23 24 24 25 24 24 25 25
18 17 16 15 14 13 13 12 12 11 11 10 10 11 12 13 13 13 12 10 8 8 8 9 10 9 8 8 6 4 2 2 3 2 2 2 1 2 6 9 9 11 11 10 10 10 10 11 11 12 12 12 13 13 13 13 14 14 13 13 14 14 16 17 19 20 20 20 20 20 21 21 21 21 20 20 20 21 21 22 22 22 22 22 22
19 18 17 16 15 14 13 13 12 12 11 10 10 10 11 12 12 12 12 11 9 8 8 8 9 9 8 8 7 5 4 4 4 3 2 2 1 3 7 8 7 10 12 11 10 10 10 10 11 11 12 12 12 13 13 13 13 13 12 12 12 13 15 17 18 18 18 18 18 18 18 18 18 18 18 19 19 20 20 20 20 20 21 21 20
20 19 19 18 17 16 15 14 14 13 11 10 10 10 11 11 12 12 12 12 11 9 8 7 7 8 8 8 7 6 6 5 4 2 3 4 3 3 6 7 6 9 13 11 9 9 9 10 11 12 12 12 12 12 12 11 10 11 11 11 12 13 14 14 15 16 17 16 16 15 15 16 16 17 17 18 19 19 20 20 20 20 20 19 19
22 21 20 19 18 18 17 16 15 13 11 10 10 10 11 11 12 12 12 13 12 10 8 7 6 6 7 7 7 6 6 5 4 4 6 6 5 4 5 5 5 9 11 10 9 8 7 9 11 11 12 12 12 12 12 11 10 11 11 12 12 12 13 13 15 16 15 15 14 14 15 16 16 17 17 18 19 19 20 20 19 19 18 18 17
22 21 20 19 19 18 18 17 15 13 12 11 11 11 11 12 12 12 12 13 13 12 10 8 7 6 5 5 5 5 6 5 4 5 7 8 7 5 5 5 6 7 8 8 9 6 5 7 9 10 12 12 13 14 13 13 12 11 12 12 12 12 12 13 14 14 14 14 15 15 16 16 17 17 18 19 19 19 19 18 18 17 17 16 16
21 19 19 19 20 19 19 18 16 15 13 12 12 11 11 12 13 12 11 12 13 13 12 10 9 7 6 5 3 3 4 3 3 4 7 8 8 6 4 4 3 5 6 7 8 5 4 5 5 9 12 13 14 15 14 13 13 12 12 11 12 12 12 13 13 14 14 15 15 16 16 17 17 18 19 19 18 18 17 17 17 17 16 16 15
20 19 18 19 19 20 20 19 17 16 15 14 13 13 13 13 13 13 12 11 12 13 13 13 12 10 8 6 5 4 2 2 2 4 6 8 6 3 3 2 1 3 4 4 5 5 6 6 4 7 12 13 14 14 14 14 14 13 12 12 12 13 13 13 13 14 15 16 16 16 16 17 18 19 19 17 16 16 16 16 16 17 17 16 17
22 20 20 19 19 20 20 19 18 17 16 15 14 14 14 14 13 13 12 11 11 12 12 13 13 12 10 9 8 6 4 3 3 4 5 6 5 4 3 3 2 2 1 2 3 3 5 8 7 8 12 14 14 15 15 15 14 14 12 12 13 13 13 13 14 15 16 15 15 16 17 18 19 19 16 15 15 15 16 17 17 17 17 18 18
23 22 21 21 20 20 20 19 19 17 17 16 15 15 15 15 14 13 12 11 12 11 11 11 12 13 13 11 10 9 7 6 5 5 5 5 4 5 4 4 4 3 1 1 2 3 5 9 10 11 13 15 14 15 16 15 15 15 13 12 13 13 14 14 15 15 15 15 16 17 18 18 18 16 14 14 15 15 17 18 18 18 18 18 19
25 23 23 23 22 21 20 20 20 19 17 17 16 15 15 16 16 14 12 12 12 12 10 10 11 12 14 14 13 12 10 9 8 6 6 5 5 6 5 4 5 5 4 2 1 3 8 11 13 13 15 16 16 16 16 16 17 16 14 13 12 13 14 14 14 15 15 16 17 18 18 16 15 14 13 14 15 17 19 19 18 18 18 19 20
27 25 24 23 23 23 22 21 20 20 19 18 18 17 16 17 17 16 14 13 13 13 11 11 11 11 12 13 14 14 13 12 10 9 8 7 7 8 7 6 5 5 6 4 4 8 13 14 15 15 16 16 16 17 18 17 17 17 15 14 13 13 13 13 14 14 15 17 17 17 15 14 13 13 13 14 17 19 19 18 17 17 19 20 23
28 27 25 24 24 23 23 22 22 21 21 20 19 19 17 17 18 17 16 15 15 14 13 12 11 11 10 11 12 12 13 13 12 10 9 8 8 9 8 7 7 7 7 7 7 11 15 16 17 17 17 17 18 18 19 19 19 18 17 15 13 13 12 13 14 15 15 16 15 14 13 13 13 13 13 15 18 19 19 17 17 18 20 23 26
29 29 27 26 24 24 23 24 24 23 22 21 20 20 19 18 18 18 17 16 16 16 15 14 13 12 12 12 11 11 11 12 12 11 10 9 9 10 9 8 8 8 8 9 9 10 15 19 20 19 18 19 20 20 20 20 20 19 18 16 14 12 11 12 14 14 14 14 14 13 13 13 12 12 14 16 19 18 17 17 18 20 22 25 25
30 29 29 27 25 24 24 24 24 24 23 22 21 21 21 20 19 19 19 18 18 17 17 16 15 14 14 14 13 11 11 12 13 12 11 10 10 10 10 10 10 10 10 11 11 11 14 18 20 20 21 21 22 21 21 20 19 19 19 17 14 12 10 11 14 14 13 13 12 12 12 12 12 13 15 18 18 17 17 17 19 22 24 25 24
31 30 30 29 27 25 25 24 25 25 25 24 22 22 21 21 21 21 20 20 20 19 19 18 18 17 17 17 16 14 13 13 14 14 14 13 13 12 12 12 12 12 12 12 13 13 14 16 19 21 21 22 22 21 21 20 18 19 19 16 14 12 10 10 13 13 11 11 11 11 11 11 12 14 17 18 17 16 17 18 21 23 25 25 24
34 32 31 31 30 28 27 26 26 26 26 25 24 23 22 22 21 22 22 22 22 22 21 20 20 20 19 19 18 16 16 16 16 16 15 16 16 15 15 15 14 14 15 14 14 14 14 16 19 20 20 21 22 21 20 20 20 21 20 16 14 13 11 10 12 12 10 11 11 11 10 10 12 14 17 18 17 16 17 19 21 24 25 25 24
36 34 33 32 32 31 30 29 28 27 27 26 26 25 24 23 23 23 23 23 24 24 24 23 23 22 22 21 21 20 20 20 19 18 17 17 18 18 18 17 16 16 16 16 15 15 15 17 18 20 21 22 22 22 20 19 21 22 20 17 16 15 12 12 13 12 9 10 12 11 10 10 12 15 17 17 16 16 18 19 21 23 23 24 25
36 36 35 34 34 33 32 31 30 29 28 28 28 27 26 25 25 25 25 25 25 25 25 25 24 24 24 23 23 22 22 23 22 21 20 19 19 19 20 19 18 18 18 17 16 16 17 17 18 20 21 22 22 22 21 21 21 19 17 17 18 17 15 14 14 12 9 10 12 12 10 10 12 14 16 16 16 16 17 19 20 21 22 23 24
35 35 36 36 35 34 33 33 32 31 30 30 30 29 29 27 26 26 26 27 27 27 27 27 26 25 25 25 24 24 24 24 24 23 22 22 21 21 21 21 20 19 19 19 18 17 17 18 18 20 20 21 22 22 22 21 19 17 15 15 17 18 16 15 15 13 10 10 13 13 11 11 12 14 15 15 16 16 16 18 19 21 22 23 24
35 35 34 34 35 35 35 34 33 32 32 32 32 32 31 30 29 28 28 28 28 28 28 28 28 27 26 25 25 25 25 25 24 24 24 23 23 23 23 22 21 21 20 20 19 18 18 17 19 20 19 20 22 21 20 20 18 17 17 15 16 16 16 17 15 12 9 11 13 14 12 12 13 14 15 15 15 15 16 18 20 21 22 23 24
35 34 34 33 33 34 34 34 34 33 34 35 35 35 34 32 31 30 29 29 29 29 29 29 29 28 28 27 26 26 26 26 25 25 25 24 24 24 24 23 22 21 20 20 19 19 18 17 18 19 17 20 22 21 20 21 21 19 18 16 15 15 16 17 15 11 9 11 14 14 13 13 12 13 15 15 14 14 16 18 20 21 22 23 24
34 34 34 33 34 34 34 34 34 34 35 36 36 36 35 34 33 32 31 31 30 30 30 29 30 30 29 28 28 27 26 26 26 26 26 26 26 26 25 25 24 23 22 21 20 20 18 18 18 18 17 20 24 23 22 23 23 21 18 15 14 15 14 13 12 11 10 11 14 15 14 13 12 14 15 14 12 13 15 18 20 21 22 23 23
34 33 34 34 34 34 34 34 34 35 36 37 37 37 36 35 34 33 33 32 31 31 31 31 31 30 29 29 28 28 27 27 27 26 26 26 26 26 26 26 25 24 23 23 22 22 21 19 19 20 20 21 24 25 24 24 23 20 18 15 15 15 14 12 12 13 13 13 14 16 15 13 12 14 14 13 12 13 15 17 19 21 22 23 23
33 33 35 35 35 34 34 34 35 36 37 37 37 37 36 36 35 34 34 33 33 32 32 32 32 31 30 29 28 28 28 27 27 26 26 26 26 26 26 25 25 25 24 24 23 23 23 23 23 24 24 23 24 25 25 24 22 21 19 18 18 16 14 14 14 15 14 13 14 15 16 13 12 12 14 12 10 11 14 16 19 20 21 22 22
33 34 35 35 35 36 35 36 36 37 37 38 37 37 37 36 36 35 34 34 34 34 34 33 33 32 31 30 30 29 29 28 28 27 27 27 26 26 25 25 25 25 24 24 23 23 24 25 26 27 26 24 25 25 24 23 23 22 21 21 20 18 16 15 15 15 15 14 13 13 13 12 11 11 13 12 10 10 13 15 17 18 19 20 21
34 35 35 35 36 37 37 37 37 37 39 39 38 37 37 37 36 35 35 35 35 35 35 34 34 33 33 32 31 31 30 30 29 29 28 28 27 26 26 26 26 26 25 24 23 22 23 23 24 26 24 23 24 23 21 21 22 22 22 21 21 19 17 15 14 15 16 15 12 11 10 11 11 11 12 12 10 9 11 14 15 16 17 19 21
34 34 34 35 36 37 37 37 37 38 40 40 39 39 38 37 36 35 35 36 36 36 36 35 34 34 34 33 32 32 32 32 31 31 30 28 27 26 27 27 27 27 26 25 24 23 23 22 23 24 23 23 22 22 22 22 22 22 21 20 20 19 16 12 11 13 16 15 13 12 13 13 13 12 11 11 10 8 9 12 13 14 16 18 20
33 34 35 35 36 37 37 37 37 39 40 40 40 40 39 38 36 36 36 37 36 36 37 36 35 35 35 34 34 33 34 34 33 32 31 29 27 27 28 28 27 28 28 27 26 25 23 23 23 23 23 23 22 22 22 22 22 21 19 19 20 19 15 11 8 11 14 14 13 13 13 13 13 12 11 12 10 9 7 10 11 12 14 17 19
35 36 36 35 35 36 36 37 38 39 40 40 40 41 40 39 37 37 37 37 36 37 37 36 35 35 35 35 34 34 35 35 35 34 32 29 28 28 29 28 27 29 30 29 27 26 24 23 23 23 23 22 21 20 20 19 20 21 20 21 21 18 15 13 10 10 13 15 15 14 13 13 13 12 11 11 9 8 6 7 10 10 12 16 18
36 36 35 33 33 35 36 37 38 39 40 40 40 41 41 39 38 38 37 36 36 36 36 36 35 35 35 36 35 35 36 36 36 35 33 31 30 30 29 28 28 30 32 30 28 27 25 24 24 23 23 21 20 19 18 18 18 19 19 20 21 20 19 18 13 9 10 12 12 12 14 14 12 11 10 8 5 4 4 6 8 9 10 14 17
Wind_Direction
156 152 151 154 157 165 161 144 144 142 136 133 131 130 132 139 148 152 147 123 79 77 76 61 12 5 1 5 17 25 28 35 60 155 197 205 207 172 188 225 214 213 221 198 44 3 354 353 340 328 321 318 309 307 322 357 12 356 348 348 345 345 344 342 342 342 340 338 339 338 336 336 339 342 344 345 345 341 340 344 343 342 346 346 345
166 164 161 161 161 162 153 145 146 143 140 140 137 135 137 142 150 149 146 114 81 83 72 45 13 3 358 357 4 9 14 18 22 346 305 275 235 179 186 220 217 203 198 202 208 290 330 331 327 316 298 298 302 320 339 349 341 332 336 341 336 334 335 334 334 334 332 331 332 332 334 336 337 339 341 342 341 338 338 340 337 335 341 343 341
174 176 175 171 165 158 152 149 149 149 150 153 153 153 153 156 158 160 159 117 73 52 35 15 353 346 353 357 358 358 2 5 4 348 319 299 258 229 226 225 227 216 201 205 213 239 288 299 306 308 304 307 314 329 334 328 326 325 330 334 329 326 328 330 331 329 328 328 331 333 334 334 335 336 337 337 337 337 335 333 331 330 332 333 335
184 181 184 180 170 162 157 156 157 160 163 166 168 173 178 177 174 176 174 134 15 332 334 346 339 332 339 350 353 351 348 349 347 338 314 296 279 275 275 250 241 242 228 224 230 252 274 281 287 295 303 308 309 315 314 311 315 317 321 325 323 320 322 326 325 323 324 327 330 332 332 331 332 332 332 334 334 332 330 329 328 329 329 327 330
200 192 191 186 178 172 169 169 171 175 175 176 180 187 195 196 188 190 191 186 239 282 308 325 329 329 332 333 336 337 330 328 326 321 310 300 295 296 298 289 278 269 261 251 246 255 267 276 284 291 300 304 303 304 303 303 306 308 312 314 313 312 316 319 318 318 320 324 326 326 326 326 326 326 327 330 330 327 327 328 328 331 334 332 331
213 210 204 200 193 187 187 189 194 195 192 191 193 197 201 201 198 205 211 204 214 235 282 299 296 312 325 325 320 316 310 307 309 306 305 306 302 300 298 297 296 291 290 284 273 270 271 278 286 289 293 297 297 299 300 302 303 302 304 307 305 307 312 313 314 316 318 318 319 320 321 321 322 323 325 326 326 324 324 325 326 330 335 337 337
222 223 220 219 215 208 203 205 209 212 210 208 207 204 200 202 205 217 224 216 215 221 236 253 267 290 311 318 312 303 297 295 294 294 300 301 300 303 300 299 300 300 298 296 294 290 287 287 288 287 289 292 293 295 298 299 298 297 299 304 305 307 310 311 313 315 315 315 316 317 319 320 319 317 318 320 321 319 319 321 323 328 335 340 343
227 229 229 229 229 225 216 213 216 218 219 220 217 212 205 204 209 220 226 222 221 228 228 230 253 276 294 307 306 298 294 293 292 294 298 298 300 301 300 304 305 303 300 298 297 295 295 295 294 295 295 296 296 297 298 296 297 300 301 303 306 307 308 309 310 312 313 314 316 317 318 318 316 313 312 314 315 315 317 319 322 328 335 339 343
234 233 232 230 232 231 226 225 224 222 224 226 221 216 213 210 213 218 221 223 227 237 234 235 256 277 291 301 304 299 295 296 295 295 295 296 300 303 304 309 306 305 305 304 303 300 298 298 299 301 301 302 302 302 302 302 304 306 306 305 304 303 304 305 306 309 312 315 316 317 318 319 319 316 313 312 313 313 314 316 317 323 331 335 338
237 234 230 227 227 225 226 227 225 222 224 226 221 218 218 215 216 219 220 225 233 240 242 247 268 288 297 298 299 299 300 300 295 291 291 295 300 303 307 308 307 308 307 308 309 306 304 304 303 303 304 306 306 307 308 310 312 312 312 310 307 305 304 304 307 310 312 313 315 316 317 318 318 317 315 314 313 311 311 313 316 321 328 331 333
236 231 227 224 220 215 216 218 217 217 220 222 219 218 219 217 217 220 225 233 242 246 249 258 278 297 303 300 297 299 304 302 293 287 287 293 297 300 305 306 306 306 306 309 310 310 310 309 307 308 310 307 306 308 308 310 312 314 316 315 315 313 308 306 307 309 309 309 310 312 313 315 317 318 319 320 320 317 316 317 318 321 325 326 327
229 227 226 224 219 213 212 213 213 213 215 216 217 218 219 219 218 221 231 241 247 250 255 268 285 297 301 302 301 302 307 303 293 288 286 290 295 297 302 305 306 305 307 309 309 310 311 310 310 312 314 312 307 307 307 308 307 309 313 316 319 319 315 312 311 313 315 312 310 311 314 318 321 322 324 325 325 324 323 322 321 321 322 322 321
225 224 225 224 219 214 214 215 213 214 217 217 218 219 220 220 218 222 235 244 250 250 254 270 287 300 305 308 303 296 300 300 295 292 290 291 293 295 299 303 307 311 313 311 310 311 309 308 309 311 315 315 311 309 307 307 306 308 311 314 316 317 317 317 318 320 323 322 321 321 322 323 325 326 326 327 327 326 325 323 322 320 320 319 318
221 222 223 221 216 213 215 218 217 216 218 218 217 217 217 216 216 224 233 240 247 248 250 259 280 312 325 322 316 306 299 298 299 301 300 299 296 296 298 302 308 315 315 312 312 310 308 307 308 310 313 314 315 315 313 311 311 311 310 309 311 312 314 317 319 321 323 325 326 327 326 326 327 328 328 328 328 327 325 324 322 321 320 319 319
219 218 219 218 215 214 216 218 217 217 218 216 214 214 213 213 216 223 227 235 246 249 242 242 244 266 356 342 335 338 319 307 314 314 309 306 304 303 304 307 312 314 312 311 312 310 308 307 308 311 313 314 316 317 319 321 321 317 313 311 312 313 316 318 320 322 324 327 328 330 330 331 332 332 332 331 330 328 328 327 325 324 322 321 321
219 218 219 219 218 217 219 219 218 219 222 220 216 215 215 215 216 216 219 232 253 259 238 233 237 232 53 35 358 355 332 324 333 329 321 311 308 312 312 312 315 312 309 309 311 311 311 309 310 313 316 318 320 321 323 326 326 324 322 321 321 322 323 325 326 327 328 330 332 333 334 335 335 335 335 334 332 331 330 329 327 326 324 322 321
219 220 222 223 221 220 220 219 219 221 225 224 220 219 219 217 214 211 217 237 270 281 242 231 240 240 224 191 358 357 256 315 336 336 339 323 311 317 320 319 318 312 308 306 307 310 311 312 313 314 317 321 323 323 325 327 329 329 331 333 332 332 333 333 334 333 333 333 333 334 334 334 334 333 333 332 331 330 329 328 327 325 324 322 321
216 220 223 223 220 218 219 218 221 224 225 223 219 218 219 216 212 211 218 243 276 285 259 241 237 236 234 240 278 302 272 307 349 329 337 338 328 330 331 331 327 316 308 307 308 311 311 313 314 315 318 321 323 324 325 327 329 331 335 340 341 340 339 337 336 334 334 333 332 332 331 331 331 330 330 330 329 328 327 326 325 324 323 322 322
216 218 220 221 218 217 218 220 222 225 225 220 217 217 217 215 213 216 223 242 265 271 270 256 233 227 233 240 262 283 279 287 267 295 332 344 344 346 350 349 339 326 317 313 312 313 314 315 316 319 321 322 324 325 327 330 332 334 336 339 340 339 339 337 336 335 334 333 332 331 331 330 330 330 330 329 328 328 327 326 325 324 323 322 322
218 217 217 218 217 217 217 219 221 223 223 219 217 216 213 214 216 220 226 237 254 263 268 256 236 231 230 230 246 267 272 282 301 341 58 298 332 346 355 352 345 341 337 331 327 322 320 321 320 324 327 328 328 327 329 332 335 337 339 340 339 337 336 335 334 334 333 333 332 331 331 331 331 330 330 329 328 328 328 327 326 325 325 324 324
219 219 218 218 218 217 217 219 219 221 223 220 217 214 211 214 220 224 227 232 245 256 262 251 237 232 224 219 221 228 259 301 317 1 60 58 312 328 344 348 349 356 3 356 345 337 330 329 328 329 331 332 332 330 331 334 335 337 340 340 338 336 335 333 332 332 332 331 331 331 331 331 332 332 333 332 332 331 330 330 330 329 329 327 326
222 220 220 220 220 219 218 219 219 221 223 222 219 216 214 216 221 226 227 229 240 253 259 251 240 236 228 221 217 215 240 282 281 297 1 11 310 302 334 344 337 347 6 5 351 348 345 343 341 339 338 335 335 333 332 332 333 334 334 333 333 335 336 335 334 333 332 332 332 332 333 333 336 337 338 338 338 337 336 335 334 332 330 327 324
224 223 223 222 221 221 221 222 224 224 224 224 222 219 218 218 219 222 224 226 238 255 260 248 237 237 238 236 237 237 246 286 300 293 335 353 340 311 329 340 325 331 355 1 353 356 358 357 355 352 348 344 341 338 336 336 336 335 332 328 328 331 334 334 334 334 334 334 334 336 339 342 344 344 344 343 340 338 337 335 332 329 326 323 321
224 225 225 223 222 223 224 226 227 227 226 225 223 221 222 222 220 221 224 225 234 251 255 244 236 242 245 242 245 248 253 284 310 320 347 349 349 319 325 343 335 328 344 353 357 6 10 8 5 1 357 353 350 348 348 349 348 344 338 333 329 330 332 334 336 336 336 336 339 344 348 350 349 346 344 340 334 332 330 329 327 326 325 324 322
223 224 225 223 223 223 223 225 227 228 229 228 226 226 226 226 224 225 228 228 233 244 250 245 243 249 246 239 243 247 253 278 305 325 338 335 332 322 319 334 323 322 339 349 352 4 14 12 11 10 7 6 6 7 8 7 3 355 347 339 336 334 335 338 339 339 341 345 349 352 351 348 344 340 336 331 327 326 327 327 327 328 328 328 328
225 225 225 224 225 225 224 226 228 230 231 231 231 231 232 232 230 232 235 233 234 240 246 246 245 245 239 236 243 247 257 278 299 325 336 327 316 307 311 326 318 319 339 342 339 348 5 10 18 22 18 18 18 17 15 11 7 0 351 342 338 339 340 342 343 345 349 352 352 348 344 341 338 335 332 328 326 326 327 328 329 331 332 332 332
229 231 229 226 226 227 228 230 232 234 235 235 236 235 236 235 234 238 242 239 237 240 245 247 246 243 240 237 241 251 263 276 298 328 338 329 313 296 299 326 330 329 336 338 341 350 356 1 23 30 24 21 19 18 17 14 11 7 360 351 347 349 350 351 351 351 351 350 347 343 340 339 338 335 331 327 327 328 330 331 332 335 336 335 334
234 236 235 231 228 228 230 234 236 239 240 239 238 238 239 240 240 242 245 243 240 241 244 247 246 244 243 243 247 260 264 258 303 324 334 338 332 311 304 318 354 338 331 337 351 359 0 6 21 22 18 16 15 19 19 16 15 12 9 3 359 359 358 356 354 351 350 349 346 343 342 342 338 332 329 329 332 334 335 336 338 338 337 335 334
238 239 239 236 233 231 232 235 238 241 241 239 239 240 241 243 245 247 250 249 244 242 244 246 244 240 242 247 251 259 261 257 288 310 327 347 4 21 8 353 348 340 322 332 333 331 358 15 17 5 6 8 10 15 17 16 15 13 10 7 2 0 358 356 354 352 351 350 348 346 345 341 334 329 330 334 336 338 339 340 339 336 333 332 333
240 243 243 240 238 237 236 236 237 240 241 240 241 243 243 244 247 252 254 252 248 246 248 249 244 239 242 248 253 260 263 261 270 290 310 332 349 358 0 352 340 328 278 285 307 316 348 1 358 351 354 359 3 6 10 13 12 10 10 6 1 358 356 355 355 353 352 351 349 345 341 336 332 330 334 338 341 342 342 339 335 331 331 331 330
241 244 245 243 241 240 240 239 239 241 243 243 243 245 247 245 245 251 254 251 248 249 252 254 250 245 245 250 255 260 265 265 266 275 291 302 308 315 320 327 336 329 307 276 257 310 329 335 338 343 348 350 353 357 1 6 8 6 7 5 359 355 353 355 356 355 352 348 344 340 337 335 334 335 339 343 345 343 339 336 332 331 332 331 331
240 243 245 245 244 243 242 242 242 243 245 246 245 246 249 247 244 247 252 252 250 252 255 256 255 251 249 252 255 259 263 265 265 267 277 289 296 296 293 296 305 313 309 287 255 292 313 323 329 336 342 343 346 350 352 356 360 1 3 3 355 350 352 358 359 353 346 342 340 338 337 338 340 341 343 346 345 339 335 333 333 333 333 333 334
240 242 243 245 246 245 244 244 245 246 247 247 246 246 248 247 244 245 251 253 253 255 256 256 254 252 252 255 258 261 261 260 261 263 268 279 290 289 284 283 287 296 300 290 278 295 309 319 325 329 335 338 339 343 346 348 351 354 358 359 353 348 352 359 356 348 342 341 340 339 340 343 344 343 344 346 341 336 334 334 335 335 335 336 336
240 241 242 244 246 246 244 245 245 246 248 248 248 248 249 248 246 245 249 253 255 255 255 255 254 252 255 260 263 264 262 257 256 260 264 270 280 285 282 279 283 288 291 289 286 292 303 313 320 324 328 331 332 335 339 341 342 346 351 354 350 346 349 352 351 347 344 343 340 340 342 344 344 343 345 345 341 336 335 336 336 337 337 339 341
241 241 241 242 243 244 244 245 245 244 246 247 248 249 251 251 250 248 250 253 256 257 256 256 256 256 257 260 262 264 264 259 257 259 263 266 272 280 281 279 280 283 286 288 286 286 296 306 313 317 321 324 324 327 332 334 336 339 345 349 349 344 341 344 347 347 346 344 342 340 342 342 342 344 347 346 342 339 338 338 338 339 341 345 348
240 241 241 241 242 242 243 244 244 243 244 246 247 250 251 252 253 252 253 254 256 258 258 258 258 259 259 260 260 262 264 263 260 258 260 262 266 273 277 278 279 282 285 286 287 288 289 295 304 311 316 318 320 324 327 328 331 335 339 344 346 343 336 338 345 346 345 345 344 342 341 339 340 344 348 347 344 341 340 341 342 343 346 351 354
237 240 240 240 240 241 243 244 245 245 246 247 248 250 252 253 254 254 255 255 256 258 259 260 260 261 262 263 262 262 263 264 262 260 258 259 263 268 272 276 278 280 283 285 288 290 287 289 298 306 311 314 317 321 323 325 327 331 336 340 343 344 337 335 343 344 341 342 344 344 340 338 340 345 349 348 344 342 343 343 345 347 351 354 356
234 237 239 240 241 242 243 245 246 247 248 250 251 253 253 253 253 254 254 255 256 257 258 261 262 263 264 265 266 264 262 263 263 263 262 261 263 266 269 273 278 279 280 283 288 290 289 290 294 300 306 309 312 315 318 321 322 325 331 335 341 348 342 334 340 342 338 338 343 345 339 336 341 346 349 348 343 343 345 346 348 351 352 353 354
231 233 236 239 241 242 244 244 245 247 248 249 252 254 255 254 253 252 252 253 254 255 257 259 261 263 265 266 266 265 262 262 263 263 264 264 266 268 269 271 276 278 279 281 285 287 288 290 291 294 299 303 305 307 311 315 317 319 325 328 335 346 346 336 336 337 333 336 343 344 337 335 340 346 348 346 343 344 347 349 351 351 351 352 353
229 231 233 236 239 241 243 244 246 247 247 248 250 252 253 254 253 252 251 251 252 253 255 257 258 261 263 264 265 265 264 264 264 264 264 265 267 270 271 272 274 276 278 280 282 283 285 286 287 290 293 296 299 302 307 311 313 316 322 322 325 336 341 336 334 332 327 335 343 341 333 329 335 343 346 343 342 345 348 351 352 352 351 352 353
229 230 232 234 237 239 242 244 245 245 245 247 248 250 251 252 253 253 251 250 249 250 252 254 256 258 259 261 262 262 262 263 264 265 265 265 266 268 271 273 273 274 275 277 278 279 280 280 283 287 289 290 295 299 303 307 308 311 316 316 318 328 333 332 333 331 325 333 340 337 328 324 331 339 341 340 341 345 349 352 353 354 353 352 352
228 230 231 232 234 236 239 241 242 242 243 245 248 249 250 251 252 252 251 250 249 248 249 250 253 255 257 259 260 261 261 262 263 264 264 263 263 265 269 272 273 272 271 272 273 273 274 273 278 282 282 285 292 295 297 303 305 306 309 311 314 322 327 328 331 331 328 330 333 332 325 320 325 333 336 337 339 345 351 354 355 355 354 353 353
228 229 230 231 232 234 236 238 240 240 241 243 246 248 249 249 250 250 250 250 249 247 247 248 250 253 255 257 259 259 260 261 262 262 262 262 262 263 265 267 268 269 268 268 270 270 268 267 272 276 272 278 289 293 295 299 301 301 304 306 308 314 322 324 322 322 325 326 325 324 320 314 318 328 332 331 334 344 353 355 356 357 355 354 354
228 228 229 230 231 232 233 236 238 239 241 243 245 246 248 248 248 247 248 248 247 247 247 248 249 252 253 255 257 258 259 260 262 263 263 263 263 263 265 266 266 267 266 266 267 267 266 264 267 270 270 274 284 291 294 296 298 299 299 298 299 305 311 310 305 308 316 319 317 315 313 310 313 322 325 323 328 343 353 355 356 357 357 355 355
227 228 229 230 231 231 231 233 236 239 241 243 244 245 246 247 247 246 245 245 246 246 247 248 249 250 251 253 255 257 260 261 261 262 263 265 265 265 266 266 265 265 265 265 266 266 266 265 264 268 273 275 279 289 296 295 294 293 289 289 293 297 301 303 304 305 308 309 310 308 307 306 306 313 318 316 320 338 349 353 355 356 357 357 358
226 227 228 230 230 231 231 232 234 238 241 242 243 243 244 246 245 244 243 243 244 245 246 247 248 249 251 252 253 256 261 261 261 261 263 264 266 265 266 266 267 267 267 266 266 265 265 265 264 268 275 277 279 289 298 295 290 287 283 284 289 292 293 297 299 300 300 299 300 299 299 300 299 306 314 311 309 330 345 349 352 356 358 0 3
227 228 228 229 230 231 232 232 233 237 240 242 242 243 243 244 244 243 241 241 242 243 245 246 246 248 250 251 253 256 259 261 262 262 262 262 263 264 265 267 269 270 270 270 270 269 268 267 268 271 277 281 283 289 295 294 292 290 286 283 284 284 286 289 289 290 293 292 288 281 279 289 294 299 311 311 300 313 339 345 349 356 0 2 4
228 228 229 229 230 231 232 232 232 235 239 241 241 242 243 243 242 240 239 239 239 240 243 245 245 247 249 249 251 254 257 260 262 263 262 261 260 261 263 265 267 269 270 273 274 273 273 273 275 277 279 283 285 288 291 291 290 289 286 280 276 273 275 277 275 278 286 286 279 267 264 277 289 293 304 312 298 293 324 342 347 355 1 2 3
227 228 229 230 231 231 231 231 231 234 238 240 240 240 241 240 238 237 236 236 237 238 242 244 244 246 247 248 249 251 254 257 261 262 261 258 256 257 259 262 264 266 270 274 275 274 275 277 279 281 282 283 285 285 287 287 286 284 277 269 267 267 266 263 257 265 278 280 272 260 255 265 280 287 298 310 300 280 301 334 343 352 359 1 2
227 228 229 230 231 232 231 231 232 234 237 239 239 240 240 239 236 235 234 233 234 237 240 242 243 244 246 248 249 249 252 256 260 261 259 255 252 253 255 258 260 263 269 274 274 274 277 279 279 281 282 283 283 282 282 282 281 278 270 264 267 266 258 255 256 263 273 275 267 254 244 252 269 279 293 309 300 269 276 326 337 343 355 1 3
229 230 230 230 231 232 232 233 233 234 237 239 239 239 240 238 236 234 233 231 232 235 238 240 242 243 245 247 248 248 251 256 260 260 257 254 251 251 253 254 254 260 268 272 272 274 277 278 279 281 281 282 283 281 279 278 276 275 271 269 268 262 256 257 257 259 270 273 263 243 234 243 258 269 283 303 302 261 269 316 329 333 346 357 3